HKE313 ZJHK-VHHH

Flight info

Callsign HKE313
Flight time N/A
Altitude 26600
Route SAMAS9XD SAMAS A202 SIKOU/N0398F266 V571 CANTO
Aircraft A320/M-SDE3FGHIRWY/LB1

Departure

Time 2026-04-23 22:57
Airport Haikou Meilan International Airport (ZJHK)

Arrival

Time N/A
Airport Hong Kong International Airport (VHHH)
Time Latitude Longitude Altitude Speed Heading
2026-04-23 22:33 19.94857 110.45751 51 ft 0 kts 160°
2026-04-23 22:46 19.94855 110.45753 52 ft 4 kts 170°
2026-04-23 22:46 19.94874 110.45755 52 ft 4 kts 193°
2026-04-23 22:47 19.94900 110.45763 51 ft 4 kts 202°
2026-04-23 22:47 19.94923 110.45776 53 ft 4 kts 225°
2026-04-23 22:47 19.94929 110.45783 52 ft 0 kts 233°
2026-04-23 22:51 19.94928 110.45781 53 ft 1 kts 235°
2026-04-23 22:51 19.94936 110.45768 49 ft 5 kts 308°
2026-04-23 22:52 19.94963 110.45714 55 ft 12 kts 281°
2026-04-23 22:52 19.94978 110.45616 55 ft 15 kts 304°
2026-04-23 22:52 19.95058 110.45538 53 ft 16 kts 334°
2026-04-23 22:52 19.95176 110.45530 54 ft 18 kts 348°
2026-04-23 22:53 19.95203 110.45458 55 ft 12 kts 269°
2026-04-23 22:53 19.95202 110.45361 55 ft 14 kts 269°
2026-04-23 22:53 19.95203 110.45247 54 ft 17 kts 271°
2026-04-23 22:53 19.95204 110.45114 53 ft 19 kts 269°
2026-04-23 22:54 19.95211 110.44988 48 ft 8 kts 308°
2026-04-23 22:54 19.95241 110.44983 52 ft 0 kts
2026-04-23 22:55 19.95244 110.44983 52 ft 2 kts
2026-04-23 22:55 19.95255 110.44983 51 ft 1 kts
2026-04-23 22:56 19.95300 110.44984 51 ft 12 kts
2026-04-23 22:56 19.95371 110.45027 52 ft 13 kts 81°
2026-04-23 22:56 19.95372 110.45142 53 ft 26 kts 90°
2026-04-23 22:56 19.95374 110.45590 57 ft 92 kts 90°
2026-04-23 22:57 19.95376 110.46448 57 ft 141 kts 90°
2026-04-23 22:57 19.95380 110.47642 156 ft 172 kts 90°
2026-04-23 22:57 19.95445 110.48897 719 ft 176 kts 76°
2026-04-23 22:57 19.96145 110.49982 1232 ft 185 kts 35°
2026-04-23 22:58 19.97227 110.50740 1797 ft 191 kts 33°
2026-04-23 22:58 19.98381 110.51534 2219 ft 206 kts 34°
2026-04-23 22:58 19.99588 110.52360 2803 ft 207 kts 35°
2026-04-23 22:58 20.00839 110.53204 3208 ft 223 kts 34°
2026-04-23 22:59 20.02223 110.54148 3557 ft 248 kts 34°
2026-04-23 22:59 20.03708 110.55160 4216 ft 257 kts 33°
2026-04-23 22:59 20.05216 110.56196 4997 ft 260 kts 34°
2026-04-23 22:59 20.06746 110.57256 5770 ft 264 kts 33°
2026-04-23 23:00 20.08296 110.58318 6549 ft 267 kts 30°
2026-04-23 23:00 20.10023 110.59054 7278 ft 270 kts 11°
2026-04-23 23:00 20.11921 110.59224 7807 ft 283 kts 353°
2026-04-23 23:00 20.13877 110.58803 8386 ft 291 kts 344°
2026-04-23 23:01 20.15853 110.58286 9211 ft 295 kts 344°
2026-04-23 23:01 20.17857 110.57769 10043 ft 297 kts 344°
2026-04-23 23:01 20.19925 110.57241 10383 ft 317 kts 344°
2026-04-23 23:01 20.22149 110.56674 10630 ft 336 kts 344°
2026-04-23 23:02 20.24448 110.56095 11187 ft 342 kts 344°
2026-04-23 23:02 20.26772 110.55512 11818 ft 345 kts 344°
2026-04-23 23:02 20.29121 110.54921 12455 ft 348 kts 344°
2026-04-23 23:02 20.31491 110.54322 13086 ft 351 kts 343°
2026-04-23 23:03 20.33846 110.53727 13690 ft 354 kts 343°
2026-04-23 23:03 20.36250 110.53120 14219 ft 357 kts 343°
2026-04-23 23:03 20.38674 110.52505 14737 ft 360 kts 343°
2026-04-23 23:03 20.41122 110.51881 15258 ft 363 kts 343°
2026-04-23 23:04 20.43583 110.51255 15797 ft 366 kts 343°
2026-04-23 23:04 20.46136 110.50981 16292 ft 376 kts
2026-04-23 23:04 20.48701 110.51643 16792 ft 387 kts 21°
2026-04-23 23:04 20.50953 110.53260 17262 ft 397 kts 43°
2026-04-23 23:05 20.52562 110.55674 17720 ft 405 kts 64°
2026-04-23 23:05 20.53581 110.58494 18196 ft 409 kts 69°
2026-04-23 23:05 20.54551 110.61367 18570 ft 414 kts 69°
2026-04-23 23:05 20.55516 110.64275 18975 ft 417 kts 70°
2026-04-23 23:06 20.56485 110.67203 19393 ft 420 kts 70°
2026-04-23 23:06 20.57468 110.70156 19819 ft 423 kts 69°
2026-04-23 23:06 20.58464 110.73124 20229 ft 426 kts 69°
2026-04-23 23:06 20.59470 110.76110 20631 ft 429 kts 69°
2026-04-23 23:07 20.60485 110.79120 21030 ft 432 kts 69°
2026-04-23 23:07 20.61504 110.82150 21430 ft 435 kts 69°
2026-04-23 23:07 20.62529 110.85198 21851 ft 438 kts 69°
2026-04-23 23:07 20.63559 110.88266 22323 ft 441 kts 69°
2026-04-23 23:08 20.64599 110.91364 22802 ft 445 kts 69°
2026-04-23 23:08 20.65648 110.94480 23253 ft 448 kts 69°
2026-04-23 23:08 20.66708 110.97620 23583 ft 451 kts 69°
2026-04-23 23:08 20.67779 111.00782 23886 ft 454 kts 69°
2026-04-23 23:09 20.68857 111.03958 24182 ft 456 kts 69°
2026-04-23 23:09 20.69939 111.07152 24484 ft 459 kts 69°
2026-04-23 23:09 20.71024 111.10366 24789 ft 461 kts 69°
2026-04-23 23:09 20.72113 111.13599 25092 ft 463 kts 69°
2026-04-23 23:10 20.73207 111.16841 25407 ft 466 kts 69°
2026-04-23 23:10 20.74310 111.20104 25742 ft 468 kts 69°
2026-04-23 23:10 20.75415 111.23385 26060 ft 471 kts 69°
2026-04-23 23:10 20.76524 111.26685 26357 ft 473 kts 69°
2026-04-23 23:11 20.77634 111.29998 26501 ft 473 kts 69°
2026-04-23 23:11 20.78725 111.33263 26658 ft 462 kts 69°
2026-04-23 23:11 20.79807 111.36491 26857 ft 461 kts 69°
2026-04-23 23:11 20.80874 111.39666 26927 ft 460 kts 69°
2026-04-23 23:12 20.81954 111.42879 26935 ft 459 kts 69°
2026-04-23 23:12 20.83033 111.46095 26937 ft 459 kts 69°
2026-04-23 23:12 20.84111 111.49308 26937 ft 459 kts 69°
2026-04-23 23:12 20.85189 111.52518 26937 ft 459 kts 69°
2026-04-23 23:13 20.86272 111.55732 26938 ft 459 kts 69°
2026-04-23 23:13 20.87355 111.58938 26934 ft 459 kts 69°
2026-04-23 23:13 20.88439 111.62148 26935 ft 459 kts 69°
2026-04-23 23:13 20.89524 111.65359 26942 ft 459 kts 69°
2026-04-23 23:14 20.90610 111.68569 26939 ft 459 kts 69°
2026-04-23 23:14 20.91695 111.71778 26940 ft 459 kts 69°
2026-04-23 23:14 20.92776 111.74988 26941 ft 459 kts 69°
2026-04-23 23:14 20.93854 111.78201 26943 ft 459 kts 69°
2026-04-23 23:15 20.94929 111.81417 26948 ft 459 kts 69°
2026-04-23 23:15 20.96008 111.84632 26951 ft 459 kts 69°
2026-04-23 23:15 20.97090 111.87841 26952 ft 459 kts 69°
2026-04-23 23:15 20.98176 111.91054 26966 ft 459 kts 69°
2026-04-23 23:16 20.99256 111.94264 26962 ft 459 kts 69°
2026-04-23 23:16 21.00334 111.97478 26960 ft 459 kts 69°
2026-04-23 23:16 21.01410 112.00692 26955 ft 459 kts 69°
2026-04-23 23:16 21.02484 112.03908 26958 ft 459 kts 69°
2026-04-23 23:17 21.03556 112.07125 26959 ft 459 kts 69°
2026-04-23 23:17 21.04629 112.10340 26958 ft 459 kts 69°
2026-04-23 23:17 21.05691 112.13519 26957 ft 459 kts 69°
2026-04-23 23:17 21.06769 112.16734 26959 ft 459 kts 69°
2026-04-23 23:18 21.07859 112.19994 26955 ft 459 kts 69°
2026-04-23 23:18 21.08935 112.23209 26959 ft 459 kts 69°
2026-04-23 23:18 21.10009 112.26427 26959 ft 459 kts 69°
2026-04-23 23:18 21.11079 112.29647 26961 ft 459 kts 69°
2026-04-23 23:19 21.12145 112.32871 26963 ft 459 kts 69°
2026-04-23 23:19 21.13213 112.36094 26963 ft 459 kts 69°
2026-04-23 23:19 21.14269 112.39275 26963 ft 459 kts 69°
2026-04-23 23:19 21.15339 112.42497 26964 ft 459 kts 69°
2026-04-23 23:20 21.16409 112.45718 26963 ft 459 kts 69°
2026-04-23 23:20 21.17480 112.48940 26964 ft 459 kts 69°
2026-04-23 23:20 21.18547 112.52167 26964 ft 459 kts 69°
2026-04-23 23:20 21.19612 112.55391 26966 ft 460 kts 69°
2026-04-23 23:21 21.20680 112.58623 26983 ft 460 kts 69°
2026-04-23 23:21 21.21746 112.61855 26977 ft 459 kts 69°
2026-04-23 23:21 21.22808 112.65079 26969 ft 459 kts 69°
2026-04-23 23:21 21.23873 112.68310 26970 ft 459 kts 69°
2026-04-23 23:22 21.24938 112.71531 26968 ft 459 kts 69°
2026-04-23 23:22 21.26007 112.74755 26969 ft 459 kts 69°
2026-04-23 23:22 21.27074 112.77984 26968 ft 459 kts 69°
2026-04-23 23:22 21.27919 112.80547 26966 ft 459 kts 69°
2026-04-23 23:23 21.28635 112.82721 26965 ft 459 kts 69°
2026-04-23 23:23 21.29697 112.85947 26965 ft 459 kts 69°
2026-04-23 23:23 21.30754 112.89176 26964 ft 459 kts 69°
2026-04-23 23:23 21.31811 112.92408 26965 ft 459 kts 69°
2026-04-23 23:24 21.32868 112.95632 26967 ft 459 kts 69°
2026-04-23 23:24 21.33929 112.98868 26968 ft 459 kts 69°
2026-04-23 23:24 21.34998 113.02124 26956 ft 469 kts 69°
2026-04-23 23:24 21.36088 113.05446 26952 ft 473 kts 69°
2026-04-23 23:25 21.37151 113.08702 26673 ft 463 kts 69°
2026-04-23 23:25 21.38218 113.11971 25873 ft 455 kts 70°
2026-04-23 23:25 21.39259 113.15156 25099 ft 449 kts 70°
2026-04-23 23:25 21.40269 113.18257 24369 ft 443 kts 70°
2026-04-23 23:26 21.41277 113.21358 23758 ft 436 kts 70°
2026-04-23 23:26 21.42262 113.24382 23268 ft 423 kts 70°
2026-04-23 23:26 21.43215 113.27309 22812 ft 408 kts 70°
2026-04-23 23:26 21.44139 113.30143 22379 ft 395 kts 70°
2026-04-23 23:27 21.45039 113.32898 21966 ft 391 kts 70°
2026-04-23 23:27 21.45938 113.35652 21542 ft 389 kts 70°
2026-04-23 23:27 21.46830 113.38391 21122 ft 388 kts 70°
2026-04-23 23:27 21.47719 113.41120 20700 ft 387 kts 70°
2026-04-23 23:28 21.48600 113.43839 20276 ft 385 kts 70°
2026-04-23 23:28 21.49477 113.46555 19857 ft 384 kts 70°
2026-04-23 23:28 21.50352 113.49264 19432 ft 383 kts 70°
2026-04-23 23:28 21.51225 113.51962 19009 ft 382 kts 70°
2026-04-23 23:29 21.52096 113.54655 18587 ft 381 kts 70°
2026-04-23 23:29 21.53149 113.57259 18152 ft 378 kts 58°